This is the latest recevied weather packets stored in our database for station/object vk4zu-13. If no packets are shown the sender has not sent any weather packets the latest 10 day(s).
| Time | Temp. | Humidity | Pressure | Rain* | Wind** | Luminosity | Snow |
|---|---|---|---|---|---|---|---|
| 1778125084 | 26.67° C | 59% | 1013.3 hPa | 0 mm | - | 376 W/m² | - |
| 1778125019 | 26.67° C | 57% | 1013.4 hPa | 0 mm | - | 376 W/m² | - |
| 1778124960 | 26.67° C | 60% | 1013.3 hPa | 0 mm | - | 346 W/m² | - |
| 1778124897 | 26.67° C | 58% | 1013.3 hPa | 0 mm | - | 306 W/m² | - |
| 1778124826 | 26.67° C | 60% | 1013.3 hPa | 0 mm | - | 308 W/m² | - |
| 1778124757 | 26.67° C | 57% | 1013.4 hPa | 0 mm | - | 313 W/m² | - |
| 1778124686 | 26.67° C | 57% | 1013.5 hPa | 0 mm | - | 367 W/m² | - |
| 1778124616 | 26.67° C | 58% | 1013.4 hPa | 0 mm | - | 392 W/m² | - |
| 1778124552 | 26.67° C | 59% | 1013.4 hPa | 0 mm | - | 392 W/m² | - |
| 1778124489 | 26.67° C | 57% | 1013.4 hPa | 0 mm | - | 330 W/m² | - |
| 1778124430 | 26.67° C | 57% | 1013.5 hPa | 0 mm | - | 348 W/m² | - |
| 1778124358 | 26.67° C | 57% | 1013.5 hPa | 0 mm | - | 369 W/m² | - |
| 1778124283 | 26.67° C | 58% | 1013.6 hPa | 0 mm | - | 418 W/m² | - |
| 1778124213 | 26.67° C | 57% | 1013.6 hPa | 0 mm | - | 330 W/m² | - |
| 1778124145 | 26.67° C | 59% | 1013.6 hPa | 0 mm | - | 322 W/m² | - |
| 1778124075 | 26.67° C | 57% | 1013.6 hPa | 0 mm | - | 306 W/m² | - |
| 1778124004 | 26.67° C | 57% | 1013.6 hPa | 0 mm | - | 311 W/m² | - |
| 1778123941 | 26.67° C | 58% | 1013.7 hPa | 0 mm | - | 311 W/m² | - |
| 1778123881 | 26.67° C | 57% | 1013.8 hPa | 0 mm | - | 315 W/m² | - |
| 1778123817 | 26.67° C | 55% | 1013.7 hPa | 0 mm | - | 323 W/m² | - |
| 1778123753 | 26.67° C | 56% | 1013.7 hPa | 0 mm | - | 315 W/m² | - |
| 1778123694 | 27.22° C | 56% | 1013.6 hPa | 0 mm | - | 343 W/m² | - |
| 1778123630 | 27.22° C | 56% | 1013.6 hPa | 0 mm | - | 362 W/m² | - |
| 1778123567 | 27.22° C | 56% | 1013.7 hPa | 0 mm | - | 390 W/m² | - |
| 1778123508 | 27.22° C | 59% | 1013.7 hPa | 0 mm | - | 439 W/m² | - |
* Rain latest hour (hover to see other rain measurements)
** Current wind speed in m/s (hover to see current wind gust speed)